Time,TemperatureF,DewpointF,PressureIn,WindDirection,WindDirectionDegrees,WindSpeedMPH,WindSpeedGustMPH,Humidity,HourlyPrecipIn,Conditions,Clouds,dailyrainin,SolarRadiationWatts/m^2,SoftwareType,DateUTC
2013-05-13 00:02:00,63.0,61.0,-100.00,SE,127,5.0,6.0,93,0.00,,,-99.99,0.000000,,2013-05-13 10:02:00,
2013-05-13 00:12:00,63.0,61.0,-100.00,SE,127,5.0,6.0,93,0.00,,,-99.99,0.000000,,2013-05-13 10:12:00,
2013-05-13 00:22:00,63.0,61.0,-100.00,SE,127,5.0,6.0,93,0.00,,,-99.99,0.000000,,2013-05-13 10:22:00,
2013-05-13 00:32:00,63.0,61.0,-100.00,SE,127,5.0,6.0,93,0.00,,,-99.99,0.000000,,2013-05-13 10:32:00,
2013-05-13 01:02:00,63.0,61.0,-100.00,South,190,0.0,7.0,93,0.00,,,0.00,0.000000,,2013-05-13 11:02:00,
2013-05-13 01:12:00,63.0,61.0,-100.00,South,190,0.0,7.0,93,0.00,,,0.00,0.000000,,2013-05-13 11:12:00,
2013-05-13 01:21:00,63.0,61.0,-100.00,South,190,0.0,7.0,93,0.00,,,0.00,0.000000,,2013-05-13 11:21:00,
2013-05-13 01:32:00,63.0,61.0,-100.00,South,190,0.0,7.0,93,0.00,,,0.00,0.000000,,2013-05-13 11:32:00,
2013-05-13 02:01:00,65.0,62.0,-100.00,SE,145,0.0,7.0,89,0.00,,,-99.99,0.000000,,2013-05-13 12:01:00,
2013-05-13 02:11:00,65.0,62.0,-100.00,SE,145,0.0,7.0,89,0.00,,,-99.99,0.000000,,2013-05-13 12:11:00,
2013-05-13 02:21:00,65.0,62.0,-100.00,SE,145,0.0,7.0,89,0.00,,,-99.99,0.000000,,2013-05-13 12:21:00,
2013-05-13 02:32:00,65.0,62.0,-100.00,SE,145,0.0,7.0,89,0.00,,,-99.99,0.000000,,2013-05-13 12:32:00,
2013-05-13 03:01:00,64.0,61.0,-100.00,NNW,337,0.0,6.0,91,0.00,,,0.00,0.000000,,2013-05-13 13:01:00,
2013-05-13 03:11:00,64.0,61.0,-100.00,NNW,337,0.0,6.0,91,0.00,,,0.00,0.000000,,2013-05-13 13:11:00,
2013-05-13 03:21:00,64.0,61.0,-100.00,NNW,337,0.0,6.0,91,0.00,,,0.00,0.000000,,2013-05-13 13:21:00,
2013-05-13 03:31:00,64.0,61.0,-100.00,NNW,337,0.0,6.0,91,0.00,,,0.00,0.000000,,2013-05-13 13:31:00,
2013-05-13 03:52:00,62.0,60.0,-100.00,South,179,3.0,6.0,94,0.00,,,0.00,0.000000,,2013-05-13 13:52:00,
2013-05-13 04:01:00,62.0,60.0,-100.00,South,179,3.0,6.0,94,0.00,,,0.00,0.000000,,2013-05-13 14:01:00,
2013-05-13 04:11:00,62.0,60.0,-100.00,South,179,3.0,6.0,94,0.00,,,0.00,0.000000,,2013-05-13 14:11:00,
2013-05-13 04:22:00,62.0,60.0,-100.00,South,179,3.0,6.0,94,0.00,,,0.00,0.000000,,2013-05-13 14:22:00,
2013-05-13 04:31:00,62.0,60.0,-100.00,South,179,3.0,6.0,94,0.00,,,0.00,0.000000,,2013-05-13 14:31:00,
2013-05-13 05:01:00,62.0,61.0,-100.00,SSE,157,4.0,7.0,95,0.00,,,0.00,0.000000,,2013-05-13 15:01:00,
2013-05-13 05:11:00,62.0,61.0,-100.00,SSE,157,4.0,7.0,95,0.00,,,0.00,0.000000,,2013-05-13 15:11:00,
2013-05-13 05:21:00,62.0,61.0,-100.00,SSE,157,4.0,7.0,95,0.00,,,0.00,0.000000,,2013-05-13 15:21:00,
2013-05-13 05:31:00,62.0,61.0,-100.00,SSE,157,4.0,7.0,95,0.00,,,0.00,0.000000,,2013-05-13 15:31:00,
2013-05-13 06:03:00,63.0,60.0,-100.00,South,172,9.0,13.0,90,0.00,,,0.00,0.000000,,2013-05-13 16:03:00,
2013-05-13 06:11:00,63.0,60.0,-100.00,South,172,9.0,13.0,90,0.00,,,0.00,0.000000,,2013-05-13 16:11:00,
2013-05-13 06:21:00,63.0,60.0,-100.00,South,172,9.0,13.0,90,0.00,,,0.00,0.000000,,2013-05-13 16:21:00,
2013-05-13 06:33:00,63.0,60.0,-100.00,South,172,9.0,13.0,90,0.00,,,0.00,0.000000,,2013-05-13 16:33:00,
2013-05-13 07:02:00,67.0,62.0,-100.00,South,190,0.0,13.0,84,0.00,,,0.00,44.000000,,2013-05-13 17:02:00,
2013-05-13 07:12:00,67.0,62.0,-100.00,South,190,0.0,13.0,84,0.00,,,0.00,44.000000,,2013-05-13 17:12:00,
2013-05-13 07:21:00,67.0,62.0,-100.00,South,190,0.0,13.0,84,0.00,,,0.00,44.000000,,2013-05-13 17:21:00,
2013-05-13 07:32:00,67.0,62.0,-100.00,South,190,0.0,13.0,84,0.00,,,0.00,44.000000,,2013-05-13 17:32:00,
2013-05-13 08:03:00,70.0,60.0,-100.00,NNW,344,0.0,7.0,71,0.00,,,0.00,306.000000,,2013-05-13 18:03:00,
2013-05-13 08:12:00,70.0,60.0,-100.00,NNW,344,0.0,7.0,71,0.00,,,0.00,306.000000,,2013-05-13 18:12:00,
2013-05-13 08:23:00,70.0,60.0,-100.00,NNW,344,0.0,7.0,71,0.00,,,0.00,306.000000,,2013-05-13 18:23:00,
2013-05-13 08:32:00,70.0,60.0,-100.00,NNW,344,0.0,7.0,71,0.00,,,0.00,306.000000,,2013-05-13 18:32:00,
2013-05-13 09:01:00,70.0,62.0,-100.00,NW,306,3.0,8.0,75,0.00,,,0.00,482.000000,,2013-05-13 19:01:00,
2013-05-13 09:11:00,70.0,62.0,-100.00,NW,306,3.0,8.0,75,0.00,,,0.00,482.000000,,2013-05-13 19:11:00,
2013-05-13 09:21:00,70.0,62.0,-100.00,NW,306,3.0,8.0,75,0.00,,,0.00,482.000000,,2013-05-13 19:21:00,
2013-05-13 09:32:00,70.0,62.0,-100.00,NW,306,3.0,8.0,75,0.00,,,0.00,482.000000,,2013-05-13 19:32:00,
2013-05-13 10:01:00,72.0,61.0,-100.00,WSW,253,3.0,10.0,68,0.00,,,0.00,660.000000,,2013-05-13 20:01:00,
2013-05-13 10:11:00,72.0,61.0,-100.00,WSW,253,3.0,10.0,68,0.00,,,0.00,660.000000,,2013-05-13 20:11:00,
2013-05-13 10:23:00,72.0,61.0,-100.00,WSW,253,3.0,10.0,68,0.00,,,0.00,660.000000,,2013-05-13 20:23:00,
2013-05-13 10:33:00,72.0,61.0,-100.00,WSW,253,3.0,10.0,68,0.00,,,0.00,660.000000,,2013-05-13 20:33:00,
2013-05-13 11:02:00,73.0,61.0,-100.00,West,269,3.0,8.0,66,0.00,,,0.00,433.000000,,2013-05-13 21:02:00,
2013-05-13 11:14:00,73.0,61.0,-100.00,West,269,3.0,8.0,66,0.00,,,0.00,433.000000,,2013-05-13 21:14:00,
2013-05-13 11:23:00,73.0,61.0,-100.00,West,269,3.0,8.0,66,0.00,,,0.00,433.000000,,2013-05-13 21:23:00,
2013-05-13 11:33:00,73.0,61.0,-100.00,West,269,3.0,8.0,66,0.00,,,0.00,433.000000,,2013-05-13 21:33:00,
2013-05-13 12:02:00,75.0,63.0,-100.00,NW,323,8.0,12.0,67,0.00,,,0.00,738.000000,,2013-05-13 22:02:00,
2013-05-13 12:12:00,75.0,63.0,-100.00,NW,323,8.0,12.0,67,0.00,,,0.00,738.000000,,2013-05-13 22:12:00,
2013-05-13 12:22:00,75.0,63.0,-100.00,NW,323,8.0,12.0,67,0.00,,,0.00,738.000000,,2013-05-13 22:22:00,
2013-05-13 12:32:00,75.0,63.0,-100.00,NW,323,8.0,12.0,67,0.00,,,0.00,738.000000,,2013-05-13 22:32:00,
2013-05-13 13:01:00,77.0,65.0,-100.00,WNW,300,7.0,15.0,67,0.00,,,0.00,744.000000,,2013-05-13 23:01:00,
2013-05-13 13:12:00,77.0,65.0,-100.00,WNW,300,7.0,15.0,67,0.00,,,0.00,744.000000,,2013-05-13 23:12:00,
2013-05-13 13:23:00,77.0,65.0,-100.00,WNW,300,7.0,15.0,67,0.00,,,0.00,744.000000,,2013-05-13 23:23:00,
2013-05-13 13:33:00,77.0,65.0,-100.00,WNW,300,7.0,15.0,67,0.00,,,0.00,744.000000,,2013-05-13 23:33:00,
2013-05-13 14:02:00,73.0,65.0,-100.00,WNW,302,9.0,16.0,76,0.00,,,0.00,489.000000,,2013-05-14 00:02:00,
2013-05-13 14:12:00,73.0,65.0,-100.00,WNW,302,9.0,16.0,76,0.00,,,0.00,489.000000,,2013-05-14 00:12:00,
2013-05-13 14:22:00,73.0,65.0,-100.00,WNW,302,9.0,16.0,76,0.00,,,0.00,489.000000,,2013-05-14 00:22:00,
2013-05-13 14:31:00,73.0,65.0,-100.00,WNW,302,9.0,16.0,76,0.00,,,0.00,489.000000,,2013-05-14 00:31:00,
2013-05-13 15:01:00,74.0,64.0,-100.00,NW,318,6.0,15.0,72,0.00,,,0.00,543.000000,,2013-05-14 01:01:00,
2013-05-13 15:11:00,74.0,64.0,-100.00,NW,318,6.0,15.0,72,0.00,,,0.00,543.000000,,2013-05-14 01:11:00,
2013-05-13 15:21:00,74.0,64.0,-100.00,NW,318,6.0,15.0,72,0.00,,,0.00,543.000000,,2013-05-14 01:21:00,
2013-05-13 15:31:00,74.0,64.0,-100.00,NW,318,6.0,15.0,72,0.00,,,0.00,543.000000,,2013-05-14 01:31:00,
2013-05-13 16:02:00,74.0,65.0,-100.00,NNW,345,8.0,17.0,74,0.00,,,0.00,256.000000,,2013-05-14 02:02:00,
2013-05-13 16:11:00,74.0,65.0,-100.00,NNW,345,8.0,17.0,74,0.00,,,0.00,256.000000,,2013-05-14 02:11:00,
2013-05-13 16:21:00,74.0,65.0,-100.00,NNW,345,8.0,17.0,74,0.00,,,0.00,256.000000,,2013-05-14 02:21:00,
2013-05-13 16:31:00,74.0,65.0,-100.00,NNW,345,8.0,17.0,74,0.00,,,0.00,256.000000,,2013-05-14 02:31:00,
2013-05-13 17:01:00,72.0,65.0,-100.00,North,356,8.0,16.0,79,0.00,,,0.00,175.000000,,2013-05-14 03:01:00,
2013-05-13 17:11:00,72.0,65.0,-100.00,North,356,8.0,16.0,79,0.00,,,0.00,175.000000,,2013-05-14 03:11:00,
2013-05-13 17:21:00,72.0,65.0,-100.00,North,356,8.0,16.0,79,0.00,,,0.00,175.000000,,2013-05-14 03:21:00,
2013-05-13 17:32:00,72.0,65.0,-100.00,North,356,8.0,16.0,79,0.00,,,0.00,175.000000,,2013-05-14 03:32:00,
2013-05-13 18:02:00,71.0,62.0,-100.00,North,7,12.0,21.0,74,0.00,,,0.00,114.000000,,2013-05-14 04:02:00,
2013-05-13 18:13:00,71.0,62.0,-100.00,North,7,12.0,21.0,74,0.00,,,0.00,114.000000,,2013-05-14 04:13:00,
2013-05-13 18:22:00,71.0,62.0,-100.00,North,7,12.0,21.0,74,0.00,,,0.00,114.000000,,2013-05-14 04:22:00,
2013-05-13 18:32:00,71.0,62.0,-100.00,North,7,12.0,21.0,74,0.00,,,0.00,114.000000,,2013-05-14 04:32:00,
2013-05-13 19:01:00,69.0,62.0,-100.00,North,8,10.0,21.0,78,0.00,,,0.00,70.000000,,2013-05-14 05:01:00,
2013-05-13 19:12:00,69.0,62.0,-100.00,North,8,10.0,21.0,78,0.00,,,0.00,70.000000,,2013-05-14 05:12:00,
2013-05-13 19:21:00,69.0,62.0,-100.00,North,8,10.0,21.0,78,0.00,,,0.00,70.000000,,2013-05-14 05:21:00,
2013-05-13 19:32:00,69.0,62.0,-100.00,North,8,10.0,21.0,78,0.00,,,0.00,70.000000,,2013-05-14 05:32:00,
2013-05-13 20:01:00,66.0,61.0,-100.00,NNE,22,9.0,15.0,84,0.00,,,0.00,2.000000,,2013-05-14 06:01:00,
2013-05-13 20:12:00,66.0,61.0,-100.00,NNE,22,9.0,15.0,84,0.00,,,0.00,2.000000,,2013-05-14 06:12:00,
2013-05-13 20:22:00,66.0,61.0,-100.00,NNE,22,9.0,15.0,84,0.00,,,0.00,2.000000,,2013-05-14 06:22:00,
2013-05-13 20:31:00,66.0,61.0,-100.00,NNE,22,9.0,15.0,84,0.00,,,0.00,2.000000,,2013-05-14 06:31:00,
2013-05-13 21:01:00,66.0,62.0,-100.00,NE,36,7.0,15.0,87,0.00,,,0.00,0.000000,,2013-05-14 07:01:00,
2013-05-13 21:11:00,66.0,62.0,-100.00,NE,36,7.0,15.0,87,0.00,,,0.00,0.000000,,2013-05-14 07:11:00,
2013-05-13 21:21:00,66.0,62.0,-100.00,NE,36,7.0,15.0,87,0.00,,,0.00,0.000000,,2013-05-14 07:21:00,
2013-05-13 21:31:00,66.0,62.0,-100.00,NE,36,7.0,15.0,87,0.00,,,0.00,0.000000,,2013-05-14 07:31:00,
2013-05-13 22:02:00,64.0,61.0,-100.00,SSE,155,4.0,11.0,91,0.00,,,-99.99,0.000000,,2013-05-14 08:02:00,
2013-05-13 22:11:00,64.0,61.0,-100.00,SSE,155,4.0,11.0,91,0.00,,,-99.99,0.000000,,2013-05-14 08:11:00,
2013-05-13 22:21:00,64.0,61.0,-100.00,SSE,155,4.0,11.0,91,0.00,,,-99.99,0.000000,,2013-05-14 08:21:00,
2013-05-13 22:31:00,64.0,61.0,-100.00,SSE,155,4.0,11.0,91,0.00,,,-99.99,0.000000,,2013-05-14 08:31:00,
2013-05-13 23:01:00,63.0,60.0,-100.00,SSE,166,0.0,5.0,91,0.00,,,0.00,0.000000,,2013-05-14 09:01:00,
2013-05-13 23:11:00,63.0,60.0,-100.00,SSE,166,0.0,5.0,91,0.00,,,0.00,0.000000,,2013-05-14 09:11:00,
2013-05-13 23:21:00,63.0,60.0,-100.00,SSE,166,0.0,5.0,91,0.00,,,0.00,0.000000,,2013-05-14 09:21:00,
2013-05-13 23:32:00,63.0,60.0,-100.00,SSE,166,0.0,5.0,91,0.00,,,0.00,0.000000,,2013-05-14 09:32:00,